| time (UTC) | temp F | wind direction | speed knots | gust knots | rain 1hr in | rain 24hr in | rain mn in | humidity % | barometer mb |
| 20260504110516 | 55 | 196 | 0.9 | 1.7 | 0.00 | 0.00 | 0.00 | 78 | 1016.9 |
| 20260504100517 | 54 | 201 | 0.9 | 1.7 | 0.00 | 0.00 | 0.00 | 77 | 1016.7 |
| 20260504081516 | 53 | 191 | 0.9 | 3.5 | 0.00 | 0.00 | 0.00 | 75 | 1016.8 |
| 20260504080516 | 53 | 287 | 0.9 | 3.5 | 0.00 | 0.00 | 0.00 | 74 | 1016.8 |
| 20260504050516 | 53 | 336 | 0.9 | 1.7 | 0.00 | 0.00 | 0.00 | 71 | 1016.7 |
| 20260504045516 | 53 | 337 | 0.9 | 1.7 | 0.00 | 0.00 | 0.00 | 71 | 1016.7 |
| 20260504044516 | 53 | 345 | 0.9 | 1.7 | 0.00 | 0.00 | 0.00 | 70 | 1016.7 |
| 20260504043517 | 53 | 349 | 0.9 | 1.7 | 0.00 | 0.00 | 0.00 | 69 | 1016.7 |
| 20260504042516 | 53 | 350 | 0.9 | 1.7 | 0.00 | 0.00 | 0.00 | 67 | 1016.5 |
| 20260504041517 | 53 | 347 | 0.9 | 1.7 | 0.00 | 0.00 | 0.00 | 67 | 1016.4 |
| 20260504040557 | 53 | 342 | 0.9 | 1.7 | 0.00 | 0.00 | 0.00 | 67 | 1016.4 |
| 20260504035517 | 53 | 342 | 0.9 | 1.7 | 0.00 | 0.00 | 0.00 | 69 | 1016.3 |
| 20260504034517 | 53 | 18 | 0.9 | 1.7 | 0.00 | 0.00 | 0.00 | 68 | 1016.3 |
| 20260504033517 | 53 | 343 | 0.9 | 1.7 | 0.00 | 0.00 | 0.00 | 69 | 1016.3 |
| 20260504032518 | 53 | 356 | 0.9 | 1.7 | 0.00 | 0.00 | 0.00 | 69 | 1016.3 |
| 20260504031518 | 53 | 347 | 0.9 | 1.7 | 0.00 | 0.00 | 0.00 | 69 | 1016.1 |
| 20260504030538 | 53 | 349 | 0.9 | 1.7 | 0.00 | 0.00 | 0.00 | 69 | 1016.2 |
| 20260504025518 | 53 | 3 | 0.9 | 1.7 | 0.00 | 0.00 | 0.00 | 69 | 1016.2 |
| 20260504024518 | 53 | 356 | 0.9 | 1.7 | 0.00 | 0.00 | 0.00 | 70 | 1016.2 |
| 20260504023536 | 53 | 353 | 0.9 | 1.7 | 0.00 | 0.00 | 0.00 | 70 | 1016.2 |
| 20260504022536 | 53 | 346 | 0.9 | 1.7 | 0.00 | 0.00 | 0.00 | 71 | 1016.2 |
| 20260504021536 | 53 | 1 | 0.9 | 1.7 | 0.00 | 0.00 | 0.00 | 73 | 1016.2 |
| 20260504020516 | 53 | 340 | 0.9 | 2.6 | 0.00 | 0.00 | 0.00 | 75 | 1016.1 |
| 20260504015516 | 53 | 347 | 0.9 | 1.7 | 0.00 | 0.00 | 0.00 | 73 | 1016.1 |
| 20260504014516 | 54 | 10 | 0.9 | 1.7 | 0.00 | 0.00 | 0.00 | 72 | 1016.0 |
| 20260504013516 | 54 | 22 | 0.9 | 1.7 | 0.00 | 0.00 | 0.00 | 71 | 1015.9 |
| 20260504012517 | 55 | 8 | 0.9 | 1.7 | 0.00 | 0.00 | 0.00 | 71 | 1015.9 |
| 20260504011517 | 55 | 25 | 0.9 | 1.7 | 0.00 | 0.00 | 0.00 | 69 | 1015.8 |
| 20260504010517 | 55 | 18 | 0.9 | 1.7 | 0.00 | 0.00 | 0.00 | 68 | 1015.7 |
| 20260504005537 | 55 | 7 | 0.9 | 1.7 | 0.00 | 0.00 | 0.00 | 67 | 1015.7 |
| 20260504004517 | 55 | 7 | 0.9 | 1.7 | 0.00 | 0.00 | 0.00 | 66 | 1015.5 |
| 20260504003518 | 55 | 14 | 0.9 | 1.7 | 0.00 | 0.00 | 0.00 | 64 | 1015.2 |
| 20260504002518 | 55 | 42 | 0.9 | 1.7 | 0.00 | 0.00 | 0.00 | 62 | 1015.1 |
| 20260504001518 | 56 | 18 | 0.9 | 1.7 | 0.00 | 0.00 | 0.00 | 62 | 1015.0 |
| 20260504000518 | 56 | 54 | 0.9 | 1.7 | 0.00 | 0.00 | 0.00 | 61 | 1015.0 |
| 20260503235518 | 56 | 57 | 0.9 | 1.7 | 0.00 | 0.00 | 0.00 | 61 | 1014.9 |
| 20260503234518 | 57 | 304 | 0.9 | 1.7 | 0.00 | 0.00 | 0.00 | 57 | 1014.9 |
| 20260503233518 | 57 | 271 | 0.0 | 1.7 | 0.00 | 0.00 | 0.00 | 56 | 1014.9 |
| 20260503232519 | 57 | 192 | 0.9 | 1.7 | 0.00 | 0.00 | 0.00 | 58 | 1014.8 |
| 20260503231519 | 57 | 216 | 0.0 | 1.7 | 0.00 | 0.00 | 0.00 | 55 | 1014.7 |
| 20260503230518 | 58 | 300 | 0.9 | 1.7 | 0.00 | 0.00 | 0.00 | 54 | 1014.7 |
| 20260503225516 | 58 | 230 | 0.0 | 1.7 | 0.00 | 0.00 | 0.00 | 53 | 1014.7 |
| 20260503224536 | 58 | 242 | 0.0 | 1.7 | 0.00 | 0.00 | 0.00 | 49 | 1014.7 |
| 20260503223516 | 58 | 257 | 0.0 | 1.7 | 0.00 | 0.00 | 0.00 | 48 | 1014.6 |
| 20260503222536 | 59 | 66 | 0.0 | 0.9 | 0.00 | 0.00 | 0.00 | 48 | 1014.6 |
| 20260503221516 | 59 | 275 | 0.9 | 2.6 | 0.00 | 0.00 | 0.00 | 48 | 1014.6 |
| 20260503220516 | 59 | 299 | 0.0 | 1.7 | 0.00 | 0.00 | 0.00 | 46 | 1014.7 |
| 20260503215517 | 59 | 300 | 0.0 | 1.7 | 0.00 | 0.00 | 0.00 | 46 | 1014.7 |
| 20260503214517 | 59 | 281 | 0.0 | 1.7 | 0.00 | 0.00 | 0.00 | 44 | 1014.6 |
| 20260503213517 | 59 | 293 | 0.0 | 2.6 | 0.00 | 0.00 | 0.00 | 44 | 1014.6 |
| 20260503212517 | 59 | 354 | 0.0 | 1.7 | 0.00 | 0.00 | 0.00 | 45 | 1014.5 |
| 20260503211518 | 59 | 65 | 0.0 | 1.7 | 0.00 | 0.00 | 0.00 | 44 | 1014.5 |
| 20260503210518 | 59 | 58 | 0.9 | 2.6 | 0.00 | 0.00 | 0.00 | 44 | 1014.5 |
| 20260503205518 | 59 | 31 | 0.9 | 2.6 | 0.00 | 0.00 | 0.00 | 42 | 1014.4 |
| 20260503204518 | 59 | 62 | 0.9 | 2.6 | 0.00 | 0.00 | 0.00 | 42 | 1014.3 |
| 20260503203538 | 59 | 15 | 0.0 | 1.7 | 0.00 | 0.00 | 0.00 | 43 | 1014.5 |
| 20260503202518 | 59 | 301 | 0.9 | 3.5 | 0.00 | 0.00 | 0.00 | 41 | 1014.6 |
| 20260503201515 | 60 | 313 | 0.9 | 3.5 | 0.00 | 0.00 | 0.00 | 42 | 1014.7 |
| 20260503200536 | 60 | 277 | 0.0 | 1.7 | 0.00 | 0.00 | 0.00 | 41 | 1014.7 |
| 20260503195516 | 59 | 256 | 0.9 | 1.7 | 0.00 | 0.00 | 0.00 | 42 | 1014.8 |
| 20260503194516 | 59 | 230 | 0.9 | 2.6 | 0.00 | 0.00 | 0.00 | 41 | 1014.8 |
| 20260503193516 | 60 | 217 | 0.9 | 3.5 | 0.00 | 0.00 | 0.00 | 41 | 1014.8 |
| 20260503192516 | 60 | 190 | 0.9 | 3.5 | 0.00 | 0.00 | 0.00 | 42 | 1014.9 |
| 20260503191517 | 60 | 219 | 0.9 | 2.6 | 0.00 | 0.00 | 0.00 | 41 | 1015.0 |
| 20260503190517 | 60 | 197 | 0.9 | 2.6 | 0.00 | 0.00 | 0.00 | 42 | 1015.1 |
| 20260503185537 | 61 | 191 | 0.9 | 1.7 | 0.00 | 0.00 | 0.00 | 40 | 1015.3 |
| 20260503184517 | 61 | 205 | 0.0 | 2.6 | 0.00 | 0.00 | 0.00 | 42 | 1015.3 |
| 20260503183517 | 61 | 204 | 0.9 | 2.6 | 0.00 | 0.00 | 0.00 | 42 | 1015.3 |
| 20260503182517 | 61 | 193 | 0.9 | 3.5 | 0.00 | 0.00 | 0.00 | 42 | 1015.3 |
| 20260503181518 | 61 | 183 | 0.9 | 3.5 | 0.00 | 0.00 | 0.00 | 43 | 1015.4 |
| 20260503180518 | 62 | 217 | 0.9 | 2.6 | 0.00 | 0.00 | 0.00 | 44 | 1015.3 |
| 20260503175518 | 61 | 203 | 0.9 | 3.5 | 0.00 | 0.00 | 0.00 | 44 | 1015.3 |
| 20260503174518 | 61 | 229 | 0.9 | 3.5 | 0.00 | 0.00 | 0.00 | 42 | 1015.3 |
| 20260503173538 | 61 | 201 | 0.9 | 3.5 | 0.00 | 0.00 | 0.00 | 41 | 1015.3 |
| 20260503172519 | 61 | 212 | 0.9 | 3.5 | 0.00 | 0.00 | 0.00 | 41 | 1015.3 |
| 20260503171556 | 61 | 329 | 0.9 | 2.6 | 0.00 | 0.00 | 0.00 | 42 | 1015.4 |
| 20260503170516 | 61 | 340 | 0.9 | 3.5 | 0.00 | 0.00 | 0.00 | 41 | 1015.4 |
| 20260503150518 | 55 | 314 | 0.9 | 2.6 | 0.00 | 0.00 | 0.00 | 54 | 1015.4 |
| 20260503130523 | 50 | 310 | 0.9 | 2.6 | 0.00 | 0.00 | 0.00 | 59 | 1014.9 |